• In Netherlands
  • List of Countries
  • For 7 days
  • Water Temperature
  • Satellite Maps
  • Weather Map
  • Weather Widgets
  • user-avatar
    Login

    Hourly Weather Korçe

    Today, 25 April, Tuesday

    Time Temperature Precipitation Wind Pressure Humidity
    00:00 +4°C° 0 mm 1 mps 668 mmHg 93%
    01:00 +4°C° 0 mm 1 mps 668 mmHg 94%
    02:00 +4°C° 0 mm 1 mps 668 mmHg 95%
    03:00 +4°C° 0 mm 1 mps 668 mmHg 95%
    04:00 +4°C° 0 mm 1 mps 668 mmHg 96%
    05:00 +6°C° 0 mm 1 mps 668 mmHg 89%
    06:00 +7°C° 0 mm 1 mps 669 mmHg 83%
    07:00 +8°C° 0 mm 2 mps 669 mmHg 77%
    08:00 +10°C° 0 mm 2 mps 670 mmHg 67%
    09:00 +13°C° 0 mm 2 mps 670 mmHg 57%
    10:00 +14°C° 0 mm 2 mps 671 mmHg 46%
    11:00 +15°C° 0 mm 2 mps 671 mmHg 44%
    12:00 +14°C° 0 mm 3 mps 671 mmHg 42%
    13:00 +16°C° 0 mm 3 mps 671 mmHg 39%
    14:00 +16°C° 0 mm 3 mps 670 mmHg 42%
    15:00 +14°C° 0 mm 3 mps 670 mmHg 45%
    16:00 +14°C° 0 mm 3 mps 670 mmHg 47%
    17:00 +12°C° 0 mm 2 mps 669 mmHg 60%
    18:00 +8°C° 0 mm 2 mps 668 mmHg 73%
    19:00 +7°C° 0 mm 1 mps 667 mmHg 86%
    20:00 +6°C° 0 mm 1 mps 667 mmHg 88%
    21:00 +6°C° 0 mm 1 mps 667 mmHg 90%
    22:00 +4°C° 0 mm 2 mps 668 mmHg 91%
    23:00 +5°C° 0 mm 1 mps 667 mmHg 89%

    Tomorrow, 26 April, Wednesday

    Time Temperature Precipitation Wind Pressure Humidity
    00:00 +4°C° 0 mm 1 mps 667 mmHg 88%
    01:00 +4°C° 0 mm 1 mps 667 mmHg 86%
    02:00 +3°C° 0 mm 1 mps 666 mmHg 80%
    03:00 +3°C° 0 mm 1 mps 666 mmHg 75%
    04:00 +2°C° 0 mm 1 mps 666 mmHg 70%
    05:00 +5°C° 0 mm 1 mps 666 mmHg 62%
    06:00 +7°C° 0 mm 1 mps 667 mmHg 54%
    07:00 +10°C° 0 mm 1 mps 668 mmHg 46%
    08:00 +12°C° 0 mm 2 mps 669 mmHg 40%
    09:00 +13°C° 0 mm 2 mps 669 mmHg 34%
    10:00 +15°C° 0 mm 2 mps 670 mmHg 29%
    11:00 +16°C° 0 mm 2 mps 670 mmHg 29%
    12:00 +17°C° 0 mm 3 mps 670 mmHg 29%
    13:00 +17°C° 0 mm 3 mps 670 mmHg 29%
    14:00 +17°C° 0 mm 3 mps 669 mmHg 31%
    15:00 +17°C° 0 mm 2 mps 669 mmHg 34%
    16:00 +16°C° 0 mm 2 mps 669 mmHg 37%
    17:00 +13°C° 0 mm 2 mps 668 mmHg 49%
    18:00 +9°C° 0 mm 2 mps 667 mmHg 61%
    19:00 +7°C° 0 mm 1 mps 667 mmHg 73%
    20:00 +7°C° 0 mm 1 mps 667 mmHg 75%
    21:00 +6°C° 0 mm 1 mps 667 mmHg 77%
    22:00 +6°C° 0 mm 1 mps 667 mmHg 79%
    23:00 +5°C° 0 mm 1 mps 667 mmHg 79%

    Day after tomorrow, 27 April, Thursday

    Time Temperature Precipitation Wind Pressure Humidity
    00:00 +5°C° 0 mm 1 mps 666 mmHg 78%
    01:00 +5°C° 0 mm 1 mps 666 mmHg 78%
    02:00 +4°C° 0 mm 1 mps 666 mmHg 76%
    03:00 +4°C° 0 mm 1 mps 666 mmHg 74%
    04:00 +4°C° 0 mm 1 mps 665 mmHg 71%
    05:00 +7°C° 0 mm 1 mps 666 mmHg 62%
    06:00 +10°C° 0 mm 1 mps 667 mmHg 52%
    07:00 +13°C° 0 mm 1 mps 668 mmHg 42%
    08:00 +15°C° 0 mm 1 mps 669 mmHg 38%
    09:00 +18°C° 0 mm 1 mps 669 mmHg 34%
    10:00 +20°C° 0 mm 1 mps 670 mmHg 30%
    11:00 +19°C° 0 mm 2 mps 670 mmHg 30%
    12:00 +20°C° 0 mm 2 mps 670 mmHg 30%
    13:00 +20°C° 0 mm 2 mps 670 mmHg 30%
    14:00 +20°C° 0 mm 2 mps 669 mmHg 33%
    15:00 +19°C° 0 mm 2 mps 669 mmHg 35%
    16:00 +19°C° 0 mm 2 mps 668 mmHg 38%
    17:00 +15°C° 0 mm 2 mps 668 mmHg 49%
    18:00 +12°C° 0 mm 1 mps 667 mmHg 61%
    19:00 +9°C° 0 mm 1 mps 666 mmHg 73%
    20:00 +9°C° 0 mm 1 mps 666 mmHg 74%
    21:00 +8°C° 0 mm 1 mps 666 mmHg 74%
    22:00 +8°C° 0 mm 1 mps 666 mmHg 74%
    23:00 +7°C° 0 mm 2 mps 666 mmHg 72%

    28 April, Friday

    Time Temperature Precipitation Wind Pressure Humidity
    00:00 +7°C° 0 mm 2 mps 666 mmHg 70%
    01:00 +7°C° 0 mm 2 mps 666 mmHg 68%
    02:00 +6°C° 0 mm 2 mps 665 mmHg 64%
    03:00 +6°C° 0 mm 2 mps 665 mmHg 60%
    04:00 +6°C° 0 mm 2 mps 665 mmHg 56%
    05:00 +8°C° 0 mm 2 mps 666 mmHg 51%
    06:00 +10°C° 0 mm 2 mps 666 mmHg 46%
    07:00 +14°C° 0 mm 2 mps 667 mmHg 41%
    08:00 +15°C° 0 mm 2 mps 668 mmHg 37%
    09:00 +17°C° 0 mm 2 mps 668 mmHg 33%
    10:00 +19°C° 0 mm 2 mps 669 mmHg 29%
    11:00 +20°C° 0 mm 3 mps 669 mmHg 30%
    12:00 +21°C° 0 mm 3 mps 669 mmHg 30%
    13:00 +21°C° 0 mm 3 mps 668 mmHg 31%
    14:00 +20°C° 0 mm 3 mps 668 mmHg 33%
    15:00 +20°C° 0 mm 3 mps 668 mmHg 36%
    16:00 +19°C° 0 mm 3 mps 668 mmHg 38%
    17:00 +17°C° 0 mm 3 mps 667 mmHg 46%
    18:00 +14°C° 0 mm 2 mps 666 mmHg 53%
    19:00 +12°C° 0 mm 2 mps 666 mmHg 60%
    20:00 +10°C° 0 mm 2 mps 666 mmHg 60%
    21:00 +10°C° 0 mm 2 mps 666 mmHg 61%
    22:00 +9°C° 0 mm 2 mps 666 mmHg 61%
    23:00 +9°C° 0 mm 2 mps 666 mmHg 59%

    29 April, Saturday

    Time Temperature Precipitation Wind Pressure Humidity
    00:00 +8°C° 0 mm 2 mps 665 mmHg 58%
    01:00 +8°C° 0 mm 2 mps 665 mmHg 57%
    02:00 +8°C° 0 mm 2 mps 665 mmHg 55%
    03:00 +8°C° 0 mm 2 mps 664 mmHg 54%
    04:00 +8°C° 0 mm 2 mps 664 mmHg 53%
    05:00 +10°C° 0 mm 2 mps 665 mmHg 50%
    06:00 +13°C° 0 mm 2 mps 665 mmHg 47%
    07:00 +14°C° 0 mm 2 mps 666 mmHg 45%
    08:00 +16°C° 0 mm 2 mps 666 mmHg 41%
    09:00 +17°C° 0 mm 3 mps 666 mmHg 38%
    10:00 +19°C° 0 mm 3 mps 667 mmHg 35%
    11:00 +19°C° 0 mm 3 mps 667 mmHg 35%
    12:00 +19°C° 0 mm 3 mps 667 mmHg 35%
    13:00 +19°C° 0 mm 3 mps 666 mmHg 35%
    14:00 +19°C° 0 mm 3 mps 666 mmHg 38%
    15:00 +18°C° 0 mm 3 mps 666 mmHg 41%
    16:00 +18°C° 0 mm 3 mps 665 mmHg 44%
    17:00 +15°C° 0 mm 2 mps 665 mmHg 53%
    18:00 +13°C° 0 mm 2 mps 664 mmHg 62%
    19:00 +11°C° 0 mm 1 mps 664 mmHg 72%
    20:00 +11°C° 0 mm 1 mps 664 mmHg 71%
    21:00 +11°C° 0 mm 1 mps 664 mmHg 71%
    22:00 +11°C° 0 mm 1 mps 664 mmHg 71%
    23:00 +10°C° 0 mm 1 mps 664 mmHg 72%

    30 April, Sunday

    Time Temperature Precipitation Wind Pressure Humidity
    00:00 +10°C° 0 mm 1 mps 664 mmHg 72%
    01:00 +9°C° 0 mm 1 mps 664 mmHg 73%
    02:00 +9°C° 0 mm 1 mps 664 mmHg 73%
    03:00 +9°C° 0 mm 1 mps 664 mmHg 73%
    04:00 +9°C° 0 mm 1 mps 664 mmHg 73%
    05:00 +10°C° 0 mm 1 mps 664 mmHg 70%
    06:00 +12°C° 0 mm 1 mps 665 mmHg 66%
    07:00 +13°C° 0 mm 1 mps 665 mmHg 63%
    08:00 +15°C° 0 mm 1 mps 666 mmHg 55%
    09:00 +17°C° 0 mm 2 mps 666 mmHg 48%
    10:00 +19°C° 0 mm 2 mps 667 mmHg 40%
    11:00 +20°C° 0.1 mm 2 mps 667 mmHg 39%
    12:00 +20°C° 0.1 mm 3 mps 667 mmHg 39%
    13:00 +21°C° 0.1 mm 3 mps 667 mmHg 38%
    14:00 +20°C° 0.5 mm 3 mps 666 mmHg 44%
    15:00 +19°C° 0.5 mm 2 mps 666 mmHg 50%
    16:00 +18°C° 0.5 mm 2 mps 666 mmHg 56%
    17:00 +16°C° 0.3 mm 2 mps 665 mmHg 66%
    18:00 +14°C° 0.3 mm 1 mps 665 mmHg 76%
    19:00 +12°C° 0.3 mm 1 mps 664 mmHg 86%
    20:00 +11°C° 0.2 mm 1 mps 664 mmHg 88%
    21:00 +11°C° 0.2 mm 1 mps 665 mmHg 89%
    22:00 +11°C° 0.2 mm 1 mps 665 mmHg 91%
    23:00 +10°C° 0.2 mm 1 mps 665 mmHg 90%
    Show more